Location: Albigny
(45.9084°N, 6.1480°E)
Time: 15:44:16
(UTC+00:00)

Daily predictions for brighter satellites

Satellite Brightness Start Highest point End
(mag) Time Altitude Azimuth Time Altitude Azimuth Time Altitude Azimuth
Cosmos 1833 Rocket 4.4 19:53:50 10° SW 19:59:04 40° NW 20:04:22 10° NNE
USA 245 4.4 19:57:30 10° SE 20:00:24 28° ENE 20:03:54 10° N
PSLV R/B 4.5 19:57:48 10° S 20:01:15 48° W 20:04:41 10° NNW
Tiangong -1.3 19:58:56 10° WSW 20:01:52 34° S 20:04:46 10° ESE
Cosmos 1140 Rocket 4.3 19:58:37 10° SW 20:03:45 57° WNW 20:08:53 10° NNE
Terra 2.7 19:59:55 10° SE 20:04:09 34° ENE 20:08:25 10° N
Cosmos 1707 3.2 20:03:42 10° SSE 20:07:03 37° E 20:10:25 10° NNE
Cosmos 2219 Rocket 4.5 20:04:51 10° NNE 20:07:06 12° NE 20:09:21 10° ENE
Cosmos 1515 Rocket 3.6 20:03:39 10° S 20:07:53 62° E 20:12:11 10° NNE
SL-4 R/B 2.3 20:04:35 10° WSW 20:08:19 67° NNW 20:12:19 10° ENE
Cosmos 1633 Rocket 3.8 20:06:09 10° NNW 20:10:27 54° W 20:14:43 10° S
Cosmos 1190 Rocket 4.1 20:07:16 10° S 20:12:29 65° ESE 20:17:45 10° NNE
Orbus 7S? 4.4 20:07:16 10° WSW 20:13:50 59° NW 20:17:07 10° NE
Okean O Rocket 3.0 20:11:28 10° SSW 20:15:33 37° W 20:19:39 10° NNW
SeaSat 1 2.5 20:12:38 10° SE 20:17:31 72° ENE 20:22:26 10° NNW
Cosmos 1766 3.7 20:14:17 10° NNW 20:18:00 58° W 20:21:40 10° S
EXPRESS MD2 2.4 20:16:35 10° SW 20:19:47 53° SSE 20:22:03 10° ENE
Cosmos 1470 Rocket 3.9 20:18:08 10° NNW 20:22:29 65° W 20:26:45 10° S
CZ-4 R/B 4.3 20:21:29 10° WSW 20:22:52 12° W 20:24:16 10° WNW
USA 234 3.2 20:16:38 10° NE 20:23:11 74° SE 20:29:43 10° SW
Cosmos 1869 Rocket 4.2 20:21:01 10° N 20:25:14 41° ENE 20:29:11 11° SE
IRS-1A Rocket 4.2 20:24:01 10° SSE 20:29:31 87° ENE 20:35:04 10° NNW
Cosmos 2360 Rocket 3.7 20:26:22 10° N 20:31:07 26° NE 20:35:49 10° ESE
Meteor 2-12 Rocket 4.5 20:25:38 10° S 20:31:47 87° E 20:37:59 10° N
MOS 1 Rocket 4.0 20:26:39 10° SE 20:31:47 52° ENE 20:36:58 10° N
Cosmos 2333 Rocket 3.7 20:31:03 10° N 20:35:52 27° NE 20:40:42 10° ESE
Cosmos 841 Rocket 4.2 20:31:18 10° N 20:36:20 43° ENE 20:40:43 13° SE
Atlas Centaur 2 4.0 20:31:21 10° SW 20:37:51 26° S 20:43:36 12° SE
ERS-1 Rocket 3.0 20:33:17 10° SSE 20:38:18 84° ENE 20:43:22 10° NNW
Cosmos 1441 Rocket 3.0 20:35:13 10° N 20:38:49 70° ENE 20:41:54 14° SSE
SL-16 R/B 2.6 20:33:33 10° NNW 20:39:08 53° ENE 20:43:56 14° SE
Cosmos 1763 Rocket 3.9 20:35:17 10° NNW 20:40:28 61° WSW 20:45:33 10° S
Resurs 01 Rocket 4.2 20:37:32 10° SW 20:40:28 17° W 20:43:24 10° NW
Cosmos 2369 4.3 20:35:06 10° NW 20:40:40 53° WSW 20:46:13 10° S
In-Cosmos 22 4.3 20:36:45 10° S 20:42:19 61° E 20:47:47 10° NNE
RESURS DK-1 3.6 20:38:47 10° N 20:42:25 30° NE 20:45:34 12° ESE
Spot 2 Rocket 3.6 20:38:13 12° SSE 20:42:53 70° ENE 20:47:58 10° N
Cosmos 2082 Rocket 2.9 20:37:19 10° SW 20:42:56 58° WNW 20:48:35 10° NNE
SL-14 R/B 4.5 20:42:15 15° SE 20:44:25 25° E 20:47:33 10° NE
Cosmos 1933 Rocket 3.8 20:42:22 10° NNW 20:46:48 71° W 20:51:12 10° S
Cosmos 1470 3.2 20:43:45 10° NNW 20:47:23 55° W 20:50:59 10° S
SPOT 5 3.4 20:43:30 10° S 20:47:40 47° W 20:51:53 10° NNW
Cosmos 1417 Rocket 4.5 20:41:29 10° N 20:47:42 77° E 20:53:27 12° SSE
Cosmos 1300 3.7 20:47:47 10° NNE 20:50:55 28° ENE 20:52:53 17° ESE
Cosmos 1908 3.3 20:51:01 10° NNW 20:54:35 67° W 20:57:41 13° S
Cosmos 1346 Rocket 3.8 20:56:00 10° N 20:59:29 31° ENE 21:01:35 18° ESE
ATLAS 2AS CENTAUR R/B 3.4 20:55:14 10° NNW 21:01:51 46° NE 21:07:52 12° ESE
Meteor 1-22 Rocket 4.2 20:58:05 10° N 21:03:43 82° E 21:08:27 16° SSE
Ariane Rocket 3.1 21:03:07 15° S 21:07:25 76° WSW 21:12:33 10° NNW
Meteor 1-4 Rocket 4.1 21:09:50 14° E 21:09:54 14° E 21:11:35 10° NE
Cosmos 1758 3.5 21:06:52 10° N 21:10:43 55° ENE 21:12:54 23° SSE
Cosmos 1356 Rocket 3.8 21:09:23 21° SSE 21:11:50 45° E 21:15:52 10° NNE
SPOT 3 Rocket 3.7 21:12:14 16° S 21:16:23 70° WSW 21:21:33 10° NNW
Cosmos 1850 Rocket 4.1 21:13:25 14° S 21:17:46 56° ESE 21:22:52 10° NNE
Cosmos 1707 Rocket 3.8 21:16:10 21° SSE 21:18:56 55° E 21:23:17 10° NNE
SL-27 R/B 2.9 21:19:33 28° ESE 21:19:33 28° ESE 21:21:59 10° NE
ARIANE 5 R/B 4.1 21:17:31 16° ESE 21:19:53 25° ENE 21:23:24 10° N
Cosmos 1980 Rocket 4.3 21:19:12 10° WNW 21:23:02 19° W 21:26:51 10° SW
Cosmos 2322 Rocket 2.3 21:18:04 10° NNW 21:23:46 73° ENE 21:27:28 23° SE
S3M 4.3 21:17:25 10° NNW 21:23:46 70° W 21:29:06 15° S
Spot 1 4.1 21:20:19 10° NNE 21:24:49 79° ESE 21:28:33 16° S
Meteor 1-21 4.4 21:21:07 19° S 21:25:15 60° E 21:30:59 10° NNE
Cosmos 1655 Rocket 4.0 21:22:56 13° S 21:28:42 86° E 21:35:09 10° N
SJ 16-02 2.1 21:28:54 26° SE 21:30:17 33° ESE 21:34:09 10° NE
Landsat 5 3.3 21:28:13 10° NNE 21:32:13 90° E 21:35:02 20° SSW
Cosmos 2278 4.3 21:27:02 10° NW 21:32:33 50° WSW 21:36:25 19° S
Cosmos 1741 Rocket 3.9 21:31:50 15° SSW 21:36:17 77° ESE 21:41:36 10° NNE
USA 281 3.6 21:32:45 19° SE 21:37:24 56° ENE 21:43:49 10° NNW
Tiangong -0.1 21:36:01 10° WSW 21:37:28 16° SW 21:37:28 16° SW
Cosmos 1400 Rocket 3.7 21:35:14 11° SSW 21:38:50 45° WNW 21:42:34 10° N
MetOp-A 4.1 21:37:25 24° S 21:40:39 79° WSW 21:45:56 10° NNW
Okean 3 3.4 21:39:26 30° SSE 21:41:17 62° E 21:45:24 10° NNE
COSMOS 2428 4.4 21:37:02 10° N 21:41:38 24° NE 21:46:13 10° ESE
Terra 3.4 21:37:48 10° SSW 21:41:46 29° W 21:45:51 10° NW
Cosmos 1733 Rocket 3.0 21:37:34 10° N 21:42:00 85° W 21:44:16 28° S
GP-B 4.2 21:39:22 10° NNE 21:43:18 30° E 21:44:46 25° ESE
Cosmos 968 Rocket 3.4 21:41:01 22° S 21:44:20 66° ESE 21:49:29 10° NNE
Cosmos 1814 Rocket 4.3 21:41:55 10° NNW 21:47:10 61° ENE 21:50:00 27° SE
SL-4 R/B 3.6 21:43:53 10° WNW 21:47:32 36° N 21:51:24 10° ENE
Cosmos 2228 Rocket 3.4 21:44:42 18° SSW 21:48:01 66° W 21:52:35 10° N
Cosmos 1315 Rocket 3.2 21:51:04 35° SE 21:52:07 45° E 21:55:57 10° NNE
Cosmos 2219 Rocket 2.7 21:46:54 10° NNW 21:52:28 52° ENE 21:55:47 23° SE
Cosmos 1908 Rocket 4.2 21:49:10 10° N 21:53:18 41° ENE 21:54:53 29° ESE
ATLAS CENTAUR R/B 0.8 21:52:13 29° SSW 21:53:52 80° SE 21:57:28 10° NE
Meteor 2-10 Rocket 4.4 21:51:37 10° NNW 21:56:59 47° W 22:00:34 19° SSW
Cosmos 1953 2.6 21:56:04 10° N 21:59:49 51° ENE 22:00:51 38° SE
H-2A R/B 3.5 21:59:30 26° ESE 22:01:11 36° ENE 22:05:07 10° N
Cosmos 1455 2.4 21:59:38 10° N 22:03:02 46° ENE 22:03:41 40° ESE
Cosmos 1242 Rocket 3.6 22:04:20 22° ENE 22:04:20 22° ENE 22:06:01 10° NE
USA 234 4.3 21:59:47 10° NE 22:06:00 48° NNW 22:12:11 10° W
Okean 1-7 3.0 22:04:58 38° S 22:06:32 72° E 22:10:52 10° NNE
BREEZE-M DEB (TANK) 2.4 22:06:40 10° WNW 22:08:54 57° SSW 22:09:08 54° S
CZ-2C R/B 3.5 22:05:26 10° NNE 22:09:52 76° ESE 22:11:36 36° S
CZ-4C R/B 3.9 22:11:44 11° E 22:11:44 11° E 22:12:52 10° E
ALOS 2 3.9 22:11:53 22° ESE 22:13:38 30° ENE 22:17:27 10° N
Cosmos 2360 Rocket 2.4 22:09:55 10° NNW 22:15:30 60° WSW 22:18:06 31° S
RESURS DK-1 3.7 22:16:35 10° NW 22:20:04 28° WSW 22:21:10 24° SW
Cosmos 2333 Rocket 2.5 22:14:54 10° NNW 22:20:33 60° WSW 22:23:08 32° S
SL-16 R/B 3.7 22:18:15 10° NW 22:22:51 26° WSW 22:25:47 17° SW
H-2A R/B 4.2 22:21:30 10° ENE 22:23:09 12° E 22:23:29 12° E
Atlas Centaur 2 4.1 22:19:59 10° WSW 22:25:49 22° SSW 22:25:49 22° SSW
EXPRESS MD2 4.0 22:25:18 10° WNW 22:27:19 29° N 22:27:54 25° NNE
OPS 8737 4.0 22:25:48 10° NW 22:28:44 81° NE 22:28:45 81° ENE
SL-08 R/B 4.4 22:25:47 29° S 22:29:05 87° W 22:35:14 10° N
BREEZE-M DEB (TANK) 4.1 22:16:30 10° W 22:32:08 67° N 22:36:10 10° ENE
Cosmos 1703 Rocket 3.5 22:32:44 43° S 22:34:11 89° W 22:38:40 10° N
Cosmos 2242 Rocket 4.4 22:36:20 34° ESE 22:37:17 38° E 22:41:30 10° NNE
DNEPR-1 R/B 4.2 22:30:52 10° NW 22:37:34 83° WSW 22:39:56 37° SSE
Meteor 1-4 Rocket 3.9 22:41:49 22° W 22:42:31 24° WNW 22:45:02 10° NNW
Cosmos 1932 4.5 22:38:31 16° SW 22:43:42 83° NW 22:50:02 10° NE
Cosmos 839 Rocket 4.2 22:38:22 10° NW 22:45:06 63° WSW 22:47:42 35° S
Cosmos 2322 3.7 22:41:21 10° NNW 22:47:04 78° ENE 22:49:30 36° SE
Cosmos 2237 Rocket 3.7 22:43:06 10° N 22:48:06 30° NE 22:52:21 13° ESE
BlueWalker 3 3.5 22:50:03 23° E 22:50:03 23° E 22:51:47 10° ENE
ATLAS 2AS CENTAUR R/B 3.1 22:46:21 10° NW 22:52:46 46° WSW 22:55:16 32° SSW
Cosmos 2227 Rocket 4.1 22:53:35 14° ESE 22:54:37 14° E 22:57:32 10° ENE
Cosmos 405 Rocket 4.4 22:52:06 10° NNE 22:55:04 22° ENE 22:55:58 20° E
ARIANE 5 R/B 3.6 22:54:59 30° SW 22:56:07 35° W 23:00:06 10° NNW
SL-24 R/B - RUBIN 2 4.5 22:52:24 10° NW 22:58:59 70° WSW 23:01:28 38° SSE
Meteor 2-5 Rocket 4.2 23:03:32 35° SE 23:05:37 51° E 23:11:17 10° NNE
Cosmos 1703 3.4 23:06:49 50° E 23:06:53 50° E 23:10:28 10° NNE
Cosmos 2322 Rocket 4.0 23:03:24 10° WNW 23:07:09 18° W 23:09:15 15° SW
Cosmos 1570 Rocket 4.1 23:02:21 10° NNW 23:07:41 69° WSW 23:09:22 43° S
Cosmos 1745 Rocket 4.1 23:05:11 32° SSW 23:08:18 73° W 23:14:40 10° N
PSLV R/B 3.8 23:04:18 10° NNE 23:08:27 50° E 23:08:58 47° SE
SJ 16-02 3.2 23:05:36 13° WSW 23:08:39 26° WNW 23:12:19 10° N
COSMOS 2455 3.0 23:08:58 39° SSE 23:10:52 54° ESE 23:16:44 10° NE
Cosmos 2297 Rocket 2.8 23:13:10 34° SE 23:14:30 39° ESE 23:19:43 10° NE
Nadezhda 1 Rocket 4.4 23:12:55 10° NNW 23:19:01 53° W 23:21:42 32° SSW
Cosmos 2181 Rocket 4.4 23:13:17 10° N 23:19:24 55° ENE 23:22:13 31° SE
Cosmos 1408 2.9 23:22:14 45° NW 23:22:14 45° NW 23:24:47 10° N
USA 281 4.2 23:19:37 24° SW 23:22:10 32° WSW 23:27:57 10° NW
COSMOS 2428 2.7 23:20:43 10° NNW 23:26:22 66° WSW 23:28:13 42° S
SL-4 R/B 2.9 23:22:54 10° WNW 23:26:53 50° NNE 23:31:05 10° E
GEOS 3 Rocket 3.6 23:25:03 10° NE 23:30:10 59° SE 23:31:28 45° S
ATLAS CENTAUR R/B 3.9 23:30:02 10° WNW 23:32:02 14° NW 23:34:04 10° N
CZ-3 Stage 3 4.4 23:16:48 10° W 23:35:09 28° SW 23:37:06 26° SSW
Cosmos 2219 Rocket 3.4 23:31:25 10° NW 23:36:04 27° WSW 23:37:28 24° SW
H-2A R/B 4.0 23:35:29 23° WSW 23:36:10 24° W 23:39:40 10° NW
Cosmos 1892 3.4 23:38:13 36° E 23:38:13 36° E 23:41:26 10° NNE
Cosmos 2208 Rocket 4.4 23:33:21 10° NNW 23:38:22 49° WSW 23:39:34 40° SW
Cosmos 371 Rocket 3.2 23:38:59 49° SSW 23:40:19 87° WNW 23:45:09 10° NNE
Cosmos 158 Rocket 4.4 23:35:43 10° NNW 23:40:51 50° WSW 23:42:07 41° SSW
Cosmos 773 Rocket 3.9 23:43:07 10° NNW 23:48:18 80° WSW 23:49:51 46° S
Cosmos 2151 Rocket 3.6 23:44:39 10° N 23:49:05 75° E 23:50:03 52° SSE
ALOS 2 3.7 23:49:16 28° WSW 23:49:55 29° W 23:53:46 10° NW
Cosmos 2263 Rocket 4.1 23:50:27 14° ESE 23:52:18 16° E 23:55:33 10° ENE
Cosmos 1503 Rocket 4.0 23:51:55 43° SSW 23:53:44 89° WNW 23:59:05 10° NNE
